<?xml version="1.0"?>
<gpx xmlns="http://www.topografix.com/GPX/1/1" xmlns:xsi="http://www.w3.org/2001/XMLSchema-instance" version="1.1" creator="GPX RubyGem 1.0.0 -- http://dougfales.github.io/gpx/" xsi:schemaLocation="http://www.topografix.com/GPX/1/1 http://www.topografix.com/GPX/1/1/gpx.xsd">
  <metadata>
    <name/>
    <time>2026-05-07T20:55:45+00:00</time>
    <bound minlat="90.0" minlon="180.0" maxlat="-90.0" maxlon="-180.0"/>
  </metadata>
  <trk>
    <name/>
    <trkseg>
      <trkpt lat="45.555123" lon="7.32371">
        <time>1970-01-01T00:00:00+00:00</time>
        <ele>1907.0</ele>
      </trkpt>
      <trkpt lat="45.552859" lon="7.322752">
        <time>1970-01-01T00:00:00+00:00</time>
        <ele>1855.0</ele>
      </trkpt>
      <trkpt lat="45.548804" lon="7.317845">
        <time>1970-01-01T00:00:00+00:00</time>
        <ele>2088.0</ele>
      </trkpt>
      <trkpt lat="45.547216" lon="7.316963">
        <time>1970-01-01T00:00:00+00:00</time>
        <ele>2097.0</ele>
      </trkpt>
      <trkpt lat="45.547271" lon="7.316161">
        <time>1970-01-01T00:00:00+00:00</time>
        <ele>2167.0</ele>
      </trkpt>
      <trkpt lat="45.546262" lon="7.316383">
        <time>1970-01-01T00:00:00+00:00</time>
        <ele>2067.0</ele>
      </trkpt>
      <trkpt lat="45.543745" lon="7.315081">
        <time>1970-01-01T00:00:00+00:00</time>
        <ele>2089.0</ele>
      </trkpt>
      <trkpt lat="45.543962" lon="7.314562">
        <time>1970-01-01T00:00:00+00:00</time>
        <ele>2129.0</ele>
      </trkpt>
      <trkpt lat="45.540489" lon="7.314058">
        <time>1970-01-01T00:00:00+00:00</time>
        <ele>2103.0</ele>
      </trkpt>
      <trkpt lat="45.538774" lon="7.310651">
        <time>1970-01-01T00:00:00+00:00</time>
        <ele>2229.0</ele>
      </trkpt>
      <trkpt lat="45.537999" lon="7.30696">
        <time>1970-01-01T00:00:00+00:00</time>
        <ele>2331.0</ele>
      </trkpt>
      <trkpt lat="45.536951" lon="7.307631">
        <time>1970-01-01T00:00:00+00:00</time>
        <ele>2303.0</ele>
      </trkpt>
      <trkpt lat="45.53489" lon="7.306733">
        <time>1970-01-01T00:00:00+00:00</time>
        <ele>2316.0</ele>
      </trkpt>
      <trkpt lat="45.533685" lon="7.307377">
        <time>1970-01-01T00:00:00+00:00</time>
        <ele>2344.0</ele>
      </trkpt>
      <trkpt lat="45.527702" lon="7.300033">
        <time>1970-01-01T00:00:00+00:00</time>
        <ele>2986.0</ele>
      </trkpt>
      <trkpt lat="45.528239" lon="7.299793">
        <time>1970-01-01T00:00:00+00:00</time>
        <ele>2952.0</ele>
      </trkpt>
      <trkpt lat="45.527265" lon="7.300911">
        <time>1970-01-01T00:00:00+00:00</time>
        <ele>2977.0</ele>
      </trkpt>
      <trkpt lat="45.526746" lon="7.299294">
        <time>1970-01-01T00:00:00+00:00</time>
        <ele>3096.0</ele>
      </trkpt>
      <trkpt lat="45.527841" lon="7.297244">
        <time>1970-01-01T00:00:00+00:00</time>
        <ele>3133.0</ele>
      </trkpt>
      <trkpt lat="45.527232" lon="7.297166">
        <time>1970-01-01T00:00:00+00:00</time>
        <ele>3172.0</ele>
      </trkpt>
      <trkpt lat="45.527607" lon="7.296674">
        <time>1970-01-01T00:00:00+00:00</time>
        <ele>3157.0</ele>
      </trkpt>
      <trkpt lat="45.523697" lon="7.292503">
        <time>1970-01-01T00:00:00+00:00</time>
        <ele>3296.0</ele>
      </trkpt>
      <trkpt lat="45.523594" lon="7.291641">
        <time>1970-01-01T00:00:00+00:00</time>
        <ele>3354.0</ele>
      </trkpt>
      <trkpt lat="45.520859" lon="7.29086">
        <time>1970-01-01T00:00:00+00:00</time>
        <ele>3401.0</ele>
      </trkpt>
      <trkpt lat="45.519826" lon="7.289451">
        <time>1970-01-01T00:00:00+00:00</time>
        <ele>3463.0</ele>
      </trkpt>
      <trkpt lat="45.517625" lon="7.289774">
        <time>1970-01-01T00:00:00+00:00</time>
        <ele>3476.0</ele>
      </trkpt>
      <trkpt lat="45.51745" lon="7.288563">
        <time>1970-01-01T00:00:00+00:00</time>
        <ele>3511.0</ele>
      </trkpt>
      <trkpt lat="45.516665" lon="7.288746">
        <time>1970-01-01T00:00:00+00:00</time>
        <ele>3521.0</ele>
      </trkpt>
      <trkpt lat="45.517862" lon="7.283076">
        <time>1970-01-01T00:00:00+00:00</time>
        <ele>3538.0</ele>
      </trkpt>
      <trkpt lat="45.517814" lon="7.279845">
        <time>1970-01-01T00:00:00+00:00</time>
        <ele>3558.0</ele>
      </trkpt>
      <trkpt lat="45.519539" lon="7.273422">
        <time>1970-01-01T00:00:00+00:00</time>
        <ele>3616.0</ele>
      </trkpt>
      <trkpt lat="45.51888" lon="7.272962">
        <time>1970-01-01T00:00:00+00:00</time>
        <ele>3630.0</ele>
      </trkpt>
      <trkpt lat="45.518422" lon="7.27096">
        <time>1970-01-01T00:00:00+00:00</time>
        <ele>3705.0</ele>
      </trkpt>
      <trkpt lat="45.516509" lon="7.272187">
        <time>1970-01-01T00:00:00+00:00</time>
        <ele>3775.0</ele>
      </trkpt>
      <trkpt lat="45.516261" lon="7.269457">
        <time>1970-01-01T00:00:00+00:00</time>
        <ele>3960.0</ele>
      </trkpt>
      <trkpt lat="45.514623" lon="7.269732">
        <time>1970-01-01T00:00:00+00:00</time>
        <ele>3926.0</ele>
      </trkpt>
      <trkpt lat="45.51488" lon="7.26886">
        <time>1970-01-01T00:00:00+00:00</time>
        <ele>3962.0</ele>
      </trkpt>
      <trkpt lat="45.514234" lon="7.267855">
        <time>1970-01-01T00:00:00+00:00</time>
        <ele>3926.0</ele>
      </trkpt>
      <trkpt lat="45.515898" lon="7.26774">
        <time>1970-01-01T00:00:00+00:00</time>
        <ele>3955.0</ele>
      </trkpt>
      <trkpt lat="45.516456" lon="7.267452">
        <time>1970-01-01T00:00:00+00:00</time>
        <ele>3958.0</ele>
      </trkpt>
      <trkpt lat="45.51779" lon="7.266402">
        <time>1970-01-01T00:00:00+00:00</time>
        <ele>3964.0</ele>
      </trkpt>
      <trkpt lat="45.51556" lon="7.267718">
        <time>1970-01-01T00:00:00+00:00</time>
        <ele>3947.0</ele>
      </trkpt>
      <trkpt lat="45.513752" lon="7.265725">
        <time>1970-01-01T00:00:00+00:00</time>
        <ele>3831.0</ele>
      </trkpt>
      <trkpt lat="45.513726" lon="7.26403">
        <time>1970-01-01T00:00:00+00:00</time>
        <ele>3778.0</ele>
      </trkpt>
      <trkpt lat="45.514359" lon="7.261226">
        <time>1970-01-01T00:00:00+00:00</time>
        <ele>3711.0</ele>
      </trkpt>
      <trkpt lat="45.517737" lon="7.25552">
        <time>1970-01-01T00:00:00+00:00</time>
        <ele>3546.0</ele>
      </trkpt>
      <trkpt lat="45.518843" lon="7.255742">
        <time>1970-01-01T00:00:00+00:00</time>
        <ele>3442.0</ele>
      </trkpt>
      <trkpt lat="45.519058" lon="7.255063">
        <time>1970-01-01T00:00:00+00:00</time>
        <ele>3419.0</ele>
      </trkpt>
      <trkpt lat="45.521791" lon="7.249825">
        <time>1970-01-01T00:00:00+00:00</time>
        <ele>3319.0</ele>
      </trkpt>
      <trkpt lat="45.522254" lon="7.249202">
        <time>1970-01-01T00:00:00+00:00</time>
        <ele>3305.0</ele>
      </trkpt>
      <trkpt lat="45.522197" lon="7.245522">
        <time>1970-01-01T00:00:00+00:00</time>
        <ele>3230.0</ele>
      </trkpt>
      <trkpt lat="45.522608" lon="7.244453">
        <time>1970-01-01T00:00:00+00:00</time>
        <ele>3221.0</ele>
      </trkpt>
      <trkpt lat="45.52204" lon="7.241174">
        <time>1970-01-01T00:00:00+00:00</time>
        <ele>3085.0</ele>
      </trkpt>
      <trkpt lat="45.521148" lon="7.240209">
        <time>1970-01-01T00:00:00+00:00</time>
        <ele>3054.0</ele>
      </trkpt>
      <trkpt lat="45.520392" lon="7.236455">
        <time>1970-01-01T00:00:00+00:00</time>
        <ele>2957.0</ele>
      </trkpt>
      <trkpt lat="45.519004" lon="7.23397">
        <time>1970-01-01T00:00:00+00:00</time>
        <ele>2883.0</ele>
      </trkpt>
      <trkpt lat="45.518801" lon="7.232504">
        <time>1970-01-01T00:00:00+00:00</time>
        <ele>2838.0</ele>
      </trkpt>
      <trkpt lat="45.512907" lon="7.228239">
        <time>1970-01-01T00:00:00+00:00</time>
        <ele>2693.0</ele>
      </trkpt>
      <trkpt lat="45.512595" lon="7.228441">
        <time>1970-01-01T00:00:00+00:00</time>
        <ele>2697.0</ele>
      </trkpt>
      <trkpt lat="45.512552" lon="7.228571">
        <time>1970-01-01T00:00:00+00:00</time>
        <ele>2698.0</ele>
      </trkpt>
      <trkpt lat="45.513274" lon="7.2273">
        <time>1970-01-01T00:00:00+00:00</time>
        <ele>2676.0</ele>
      </trkpt>
      <trkpt lat="45.512705" lon="7.225429">
        <time>1970-01-01T00:00:00+00:00</time>
        <ele>2629.0</ele>
      </trkpt>
      <trkpt lat="45.514155" lon="7.220262">
        <time>1970-01-01T00:00:00+00:00</time>
        <ele>2529.0</ele>
      </trkpt>
      <trkpt lat="45.513639" lon="7.220343">
        <time>1970-01-01T00:00:00+00:00</time>
        <ele>2513.0</ele>
      </trkpt>
      <trkpt lat="45.513801" lon="7.217745">
        <time>1970-01-01T00:00:00+00:00</time>
        <ele>2460.0</ele>
      </trkpt>
      <trkpt lat="45.513404" lon="7.218301">
        <time>1970-01-01T00:00:00+00:00</time>
        <ele>2457.0</ele>
      </trkpt>
      <trkpt lat="45.514203" lon="7.216132">
        <time>1970-01-01T00:00:00+00:00</time>
        <ele>2404.0</ele>
      </trkpt>
      <trkpt lat="45.513494" lon="7.216826">
        <time>1970-01-01T00:00:00+00:00</time>
        <ele>2411.0</ele>
      </trkpt>
      <trkpt lat="45.514164" lon="7.215045">
        <time>1970-01-01T00:00:00+00:00</time>
        <ele>2371.0</ele>
      </trkpt>
      <trkpt lat="45.513715" lon="7.215123">
        <time>1970-01-01T00:00:00+00:00</time>
        <ele>2370.0</ele>
      </trkpt>
      <trkpt lat="45.514418" lon="7.214012">
        <time>1970-01-01T00:00:00+00:00</time>
        <ele>2345.0</ele>
      </trkpt>
      <trkpt lat="45.514072" lon="7.212039">
        <time>1970-01-01T00:00:00+00:00</time>
        <ele>2274.0</ele>
      </trkpt>
      <trkpt lat="45.514456" lon="7.212155">
        <time>1970-01-01T00:00:00+00:00</time>
        <ele>2274.0</ele>
      </trkpt>
      <trkpt lat="45.51413" lon="7.211429">
        <time>1970-01-01T00:00:00+00:00</time>
        <ele>2241.0</ele>
      </trkpt>
      <trkpt lat="45.514468" lon="7.21145">
        <time>1970-01-01T00:00:00+00:00</time>
        <ele>2237.0</ele>
      </trkpt>
      <trkpt lat="45.513916" lon="7.2107">
        <time>1970-01-01T00:00:00+00:00</time>
        <ele>2203.0</ele>
      </trkpt>
      <trkpt lat="45.514364" lon="7.210589">
        <time>1970-01-01T00:00:00+00:00</time>
        <ele>2198.0</ele>
      </trkpt>
      <trkpt lat="45.513839" lon="7.210126">
        <time>1970-01-01T00:00:00+00:00</time>
        <ele>2177.0</ele>
      </trkpt>
      <trkpt lat="45.514742" lon="7.210289">
        <time>1970-01-01T00:00:00+00:00</time>
        <ele>2174.0</ele>
      </trkpt>
      <trkpt lat="45.514503" lon="7.209401">
        <time>1970-01-01T00:00:00+00:00</time>
        <ele>2127.0</ele>
      </trkpt>
      <trkpt lat="45.515295" lon="7.209664">
        <time>1970-01-01T00:00:00+00:00</time>
        <ele>2124.0</ele>
      </trkpt>
      <trkpt lat="45.514713" lon="7.207025">
        <time>1970-01-01T00:00:00+00:00</time>
        <ele>2009.0</ele>
      </trkpt>
      <trkpt lat="45.51516" lon="7.205411">
        <time>1970-01-01T00:00:00+00:00</time>
        <ele>1991.0</ele>
      </trkpt>
      <trkpt lat="45.515638" lon="7.204275">
        <time>1970-01-01T00:00:00+00:00</time>
        <ele>1992.0</ele>
      </trkpt>
      <trkpt lat="45.5173" lon="7.204094">
        <time>1970-01-01T00:00:00+00:00</time>
        <ele>1981.0</ele>
      </trkpt>
      <trkpt lat="45.517684" lon="7.20421">
        <time>1970-01-01T00:00:00+00:00</time>
        <ele>1980.0</ele>
      </trkpt>
      <trkpt lat="45.522318" lon="7.201246">
        <time>1970-01-01T00:00:00+00:00</time>
        <ele>1961.0</ele>
      </trkpt>
      <trkpt lat="45.524972" lon="7.201129">
        <time>1970-01-01T00:00:00+00:00</time>
        <ele>1955.0</ele>
      </trkpt>
    </trkseg>
  </trk>
</gpx>
